EW6005 Weather Reports


Display with metric or nautical units.
time (UTC)temp
F
wind
direction
speed
MPH
gust
MPH
rain 1hr
in
rain 24hr
in
rain mn
in
humidity
%
barometer
mb
20260904010254 79 235 0.0 0.0 0.00 0.62 0.46 99 997.6
20260904005754 79 235 0.0 0.0 0.00 0.63 0.46 98 997.6
20260904005254 79 235 0.0 0.0 0.00 0.67 0.46 98 997.7
20260904005017 79 235 0.0 0.0 0.00 0.76 0.46 98 997.6
20260904004511 79 235 0.0 0.0 0.00 1.04 0.46 98 997.6
20260904003751 79 235 0.0 1.0 0.00 1.25 0.46 98 997.7
20260904003507 79 235 0.0 1.0 0.00 1.48 0.46 98 997.7
20260904003009 79 235 0.0 1.0 0.00 1.48 0.46 98 997.8
20260904002246 79 235 0.0 1.0 0.00 1.48 0.46 98 997.9
20260904001747 79 235 0.0 1.0 0.00 1.48 0.46 98 997.9
20260904001242 79 235 0.0 0.0 0.00 1.48 0.46 98 997.9
20260904000742 79 235 0.0 0.0 0.00 1.48 0.46 99 998.0
20260904000242 79 235 0.0 0.0 0.00 1.48 0.46 99 998.0
20260903235744 79 235 0.0 0.0 0.00 1.48 0.46 98 998.0
20260903235238 79 235 0.0 0.0 0.00 1.48 0.46 98 998.0
20260903234738 79 235 0.0 0.0 0.00 1.48 0.46 98 998.0
20260903234240 79 235 0.0 0.0 0.00 1.49 0.46 99 998.0
20260903233739 79 235 0.0 1.0 0.00 1.49 0.46 99 998.0
20260903233238 79 235 0.0 1.0 0.00 1.49 0.46 99 998.1
20260903232738 79 235 0.0 1.0 0.00 1.49 0.46 99 998.1
20260903232238 79 235 0.0 1.0 0.00 1.49 0.46 99 998.2
20260903231739 79 235 0.0 1.0 0.00 1.49 0.46 98 998.3
20260903231238 79 163 0.0 1.0 0.00 1.49 0.46 98 998.3
20260903230952 79 163 0.0 1.0 0.00 1.49 0.46 98 998.3
20260903230233 79 163 0.0 1.0 0.00 1.51 0.46 99 998.3
20260903225734 79 163 0.0 1.0 0.00 1.54 0.46 99 998.3
20260903225234 79 163 0.0 1.0 0.00 1.67 0.46 99 998.2
20260903224734 79 163 0.0 1.0 0.00 1.69 0.46 99 998.2
20260903224234 79 168 0.0 1.0 0.00 1.70 0.46 99 998.2
20260903223734 79 259 0.0 1.0 0.00 1.70 0.46 99 998.1
20260903223234 79 175 0.0 1.0 0.00 1.70 0.46 99 998.1
20260903222734 79 213 0.0 1.0 0.00 1.70 0.46 99 998.1
20260903222710 79 213 0.0 1.0 0.00 1.70 0.46 99 998.1
20260903221949 79 213 0.0 1.0 0.00 1.70 0.46 99 998.2
20260903221230 79 213 0.0 0.0 0.00 1.70 0.46 99 998.3
20260903220730 79 213 0.0 1.0 0.00 1.70 0.46 99 998.4
20260903220230 79 213 0.0 1.0 0.01 1.70 0.46 99 998.6
20260903220000 79 213 0.0 1.0 0.01 1.70 0.46 99 998.5
20260903215232 79 287 0.0 0.0 0.01 1.70 0.46 99 998.6
20260903215212 78 287 0.0 0.0 0.01 1.70 0.46 99 998.7
20260903214230 78 287 0.0 0.0 0.01 1.70 0.46 99 998.7
20260903213729 78 0 0.0 0.0 0.02 1.70 0.46 99 998.8
20260903213230 78 0 0.0 0.0 0.02 1.70 0.46 98 998.7
20260903212730 78 0 0.0 0.0 0.02 1.70 0.46 98 998.8
20260903212230 78 0 0.0 0.0 0.02 1.70 0.46 98 998.9
20260903211959 78 0 0.0 0.0 0.02 1.70 0.46 98 999.0
20260903211452 78 0 0.0 0.0 0.02 1.70 0.46 98 999.1
20260903210730 78 0 0.0 0.0 0.02 1.70 0.46 98 999.1
20260903210230 78 0 0.0 0.0 0.02 1.69 0.45 98 999.2
20260903205726 78 0 0.0 0.0 0.03 1.69 0.45 98 999.2
20260903205227 78 0 0.0 0.0 0.03 1.69 0.45 98 999.3
20260903205213 78 0 0.0 0.0 0.04 1.69 0.45 98 999.4
20260903204226 78 0 0.0 0.0 0.04 1.69 0.45 98 999.4
20260903203726 78 0 0.0 0.0 0.03 1.68 0.45 98 999.4
20260903203226 78 0 0.0 0.0 0.03 1.68 0.44 98 999.5
20260903202725 78 0 0.0 1.0 0.03 1.68 0.44 98 999.5
20260903202227 78 0 0.0 1.0 0.03 1.68 0.44 98 999.4
20260903202211 78 0 0.0 1.0 0.03 1.68 0.44 98 999.5
20260903201222 78 0 0.0 1.0 0.03 1.68 0.44 98 999.5
20260903200721 77 0 0.0 0.0 0.04 1.68 0.44 98 999.6
20260903200223 77 0 0.0 1.0 0.03 1.67 0.43 97 999.5
20260903195721 77 0 0.0 1.0 0.04 1.66 0.42 97 999.4
20260903195223 77 0 0.0 1.0 0.07 1.66 0.42 97 999.3
20260903194722 77 0 0.0 0.0 0.13 1.65 0.41 97 999.4
20260903194224 77 0 0.0 0.0 0.22 1.65 0.41 97 999.4
20260903193721 77 0 0.0 0.0 0.29 1.65 0.41 96 999.6
20260903193222 78 0 0.0 0.0 0.32 1.65 0.41 96 999.7
20260903192715 78 0 0.0 1.0 0.32 1.65 0.41 96 999.7
20260903192654 78 0 0.0 1.0 0.32 1.65 0.41 96 999.8
20260903191705 78 0 0.0 1.0 0.32 1.65 0.41 96 1000.1
20260903191428 79 0 0.0 1.0 0.32 1.65 0.41 96 1000.1
20260903190923 79 0 0.0 1.0 0.31 1.64 0.41 96 999.9
20260903190205 79 0 0.0 1.0 0.31 1.64 0.40 96 1000.0
20260903185706 80 0 0.0 2.0 0.29 1.62 0.39 96 1000.2
20260903185205 80 0 0.0 1.0 0.26 1.59 0.36 96 1000.4
20260903184703 80 0 0.0 1.0 0.19 1.52 0.28 96 1000.5
20260903184204 81 0 0.0 1.0 0.08 1.41 0.19 95 1000.8
20260903183704 81 292 0.0 1.0 0.03 1.36 0.12 95 1000.8
20260903183425 81 0 0.0 2.0 0.00 1.33 0.09 95 1000.6
20260903182921 81 292 0.0 2.0 0.00 1.33 0.09 94 1000.6
20260903182201 82 129 1.0 3.0 0.00 1.33 0.09 94 1000.2
20260903181700 82 195 1.0 3.0 0.00 1.33 0.09 94 1000.2
20260903181159 83 161 1.0 3.0 0.00 1.33 0.09 94 1000.4
20260903180655 83 0 1.0 2.0 0.00 1.33 0.09 97 1000.3
20260903180426 84 0 1.0 4.0 0.00 1.33 0.09 97 1000.2
20260903175653 84 0 0.0 4.0 0.00 1.33 0.09 97 1000.4
20260903175154 84 0 0.0 1.0 0.00 1.33 0.09 98 1000.3
20260903174646 84 151 0.0 2.0 0.00 1.33 0.09 98 1000.2
20260903174144 84 84 0.0 2.0 0.00 1.33 0.09 98 1000.3
20260903173641 84 32 0.0 2.0 0.00 1.33 0.09 98 1000.4
20260903173402 84 83 0.0 0.0 0.00 1.33 0.09 98 1000.4
20260903172638 84 271 0.0 0.0 0.00 1.33 0.09 97 1000.3
20260903172136 84 202 0.0 0.0 0.00 1.33 0.09 98 1000.3
20260903171632 84 202 0.0 0.0 0.00 1.33 0.09 98 1000.2
20260903171132 84 202 0.0 0.0 0.00 1.33 0.09 98 1000.1
20260903170630 84 202 0.0 0.0 0.00 1.33 0.09 98 1000.0
20260903170127 84 202 0.0 0.0 0.00 1.33 0.09 98 1000.2
20260903165626 84 202 0.0 0.0 0.00 1.33 0.09 98 1000.3
20260903165124 83 202 0.0 0.0 0.00 1.33 0.09 98 1000.4
20260903164624 83 196 0.0 0.0 0.00 1.33 0.09 98 1000.5
20260903164121 83 196 0.0 0.0 0.00 1.33 0.09 98 1000.5
20260903163622 83 196 0.0 0.0 0.00 1.33 0.09 99 1000.4
20260903163122 83 196 0.0 0.0 0.00 1.33 0.09 99 1000.3
20260903162619 83 196 0.0 0.0 0.00 1.33 0.09 99 1000.2
20260903162117 83 196 0.0 0.0 0.00 1.33 0.09 99 1000.1
20260903161617 83 196 0.0 0.0 0.00 1.33 0.09 98 1000.1
20260903161118 83 0 0.0 0.0 0.00 1.33 0.09 99 1000.1
20260903160615 83 286 0.0 0.0 0.00 1.33 0.09 99 1000.2
20260903160116 83 0 0.0 0.0 0.00 1.33 0.09 99 1000.2
20260903155834 83 0 0.0 0.0 0.00 1.33 0.09 99 1000.3
20260903155110 83 0 0.0 0.0 0.00 1.33 0.09 99 1000.2
20260903154608 83 0 0.0 0.0 0.00 1.33 0.09 99 1000.2
20260903154107 83 0 0.0 0.0 0.00 1.33 0.09 99 1000.3
20260903153607 83 0 0.0 0.0 0.00 1.33 0.09 100 1000.3
20260903153105 83 0 0.0 0.0 0.00 1.33 0.09 100 1000.3
20260903152834 83 0 0.0 0.0 0.00 1.33 0.09 100 1000.4
20260903152324 83 0 0.0 0.0 0.00 1.33 0.09 100 1000.4
20260903151605 83 0 0.0 0.0 0.00 1.33 0.09 100 1000.4
20260903151105 82 0 0.0 0.0 0.00 1.33 0.09 100 1000.5
20260903150606 82 0 0.0 0.0 0.00 1.33 0.09 100 1000.5
20260903150105 82 0 0.0 0.0 0.00 1.33 0.09 100 1000.6
20260903145602 82 0 0.0 0.0 0.00 1.33 0.09 100 1000.7
20260903145103 82 0 0.0 0.0 0.00 1.33 0.09 100 1000.8
20260903144559 81 0 0.0 0.0 0.00 1.33 0.09 100 1000.8
20260903144059 81 0 0.0 0.0 0.00 1.33 0.09 100 1000.8
20260903143559 81 0 0.0 0.0 0.00 1.33 0.09 100 1000.9
20260903143324 81 0 0.0 0.0 0.00 1.33 0.09 100 1000.8
20260903142559 81 0 0.0 0.0 0.00 1.33 0.09 100 1000.7
20260903142059 81 0 0.0 0.0 0.00 1.33 0.09 100 1000.8
20260903141558 81 0 0.0 0.0 0.00 1.33 0.09 100 1000.7
20260903141057 81 0 0.0 0.0 0.00 1.33 0.09 100 1000.7
20260903140827 81 0 0.0 0.0 0.00 1.33 0.09 100 1000.6
20260903140057 81 0 0.0 0.0 0.00 1.33 0.09 100 1000.5
20260903135557 80 0 0.0 0.0 0.00 1.33 0.09 100 1000.4
20260903135318 80 0 0.0 0.0 0.00 1.33 0.09 100 1000.4
20260903134557 80 0 0.0 0.0 0.00 1.33 0.09 100 1000.3
20260903134057 80 0 0.0 0.0 0.00 1.33 0.09 100 1000.3
20260903133557 80 0 0.0 0.0 0.00 1.33 0.09 100 1000.2
20260903133059 80 0 0.0 0.0 0.00 1.33 0.09 99 1000.2
20260903132821 80 0 0.0 0.0 0.00 1.33 0.09 99 1000.2
20260903132321 80 0 0.0 0.0 0.00 1.33 0.09 99 1000.2
20260903131557 80 0 0.0 0.0 0.00 1.33 0.09 99 1000.2
20260903131058 80 0 0.0 0.0 0.00 1.33 0.09 99 1000.2
20260903130558 80 0 0.0 0.0 0.00 1.33 0.09 99 1000.2
20260903130057 80 0 0.0 0.0 0.00 1.33 0.09 99 1000.2
20260903125557 80 0 0.0 0.0 0.00 1.33 0.09 99 1000.1
20260903125053 79 0 0.0 0.0 0.00 1.33 0.09 99 1000.1
20260903124814 79 0 0.0 0.0 0.00 1.33 0.09 99 1000.0
20260903124052 79 0 0.0 0.0 0.00 1.33 0.09 99 999.9
20260903123553 79 0 0.0 0.0 0.00 1.33 0.09 99 999.8
20260903123053 79 0 0.0 0.0 0.00 1.33 0.09 99 999.7
20260903122813 79 0 0.0 0.0 0.00 1.33 0.09 99 999.6
20260903122053 79 0 0.0 0.0 0.00 1.33 0.09 99 999.4
20260903121553 79 0 0.0 0.0 0.00 1.33 0.09 99 999.4
20260903121051 79 0 0.0 0.0 0.00 1.33 0.09 99 999.3
20260903120545 79 0 0.0 0.0 0.00 1.33 0.09 99 999.3
20260903120045 79 0 0.0 0.0 0.00 1.33 0.09 99 999.3
20260903115545 79 0 0.0 0.0 0.00 1.33 0.09 99 999.3
20260903115045 79 0 0.0 0.0 0.00 1.33 0.09 99 999.4
20260903114544 79 0 0.0 0.0 0.00 1.33 0.09 99 999.4
20260903114045 79 0 0.0 0.0 0.00 1.33 0.09 99 999.3
20260903113545 79 0 0.0 0.0 0.00 1.33 0.09 99 999.2
20260903113526 79 0 0.0 1.0 0.00 1.33 0.09 99 999.1
20260903112545 79 0 1.0 2.0 0.00 1.33 0.09 99 999.1
20260903112041 79 0 0.0 2.0 0.00 1.33 0.09 99 999.1
20260903111538 79 0 0.0 0.0 0.00 1.33 0.09 99 999.2
20260903111038 79 0 0.0 0.0 0.00 1.33 0.09 99 999.2
20260903110538 79 0 0.0 0.0 0.00 1.33 0.09 99 999.2
20260903110039 79 0 0.0 0.0 0.00 1.33 0.09 99 999.3
20260903105539 79 0 0.0 0.0 0.00 1.33 0.09 98 999.2
20260903105040 79 0 0.0 0.0 0.00 1.33 0.09 98 999.1
20260903104535 79 0 0.0 1.0 0.00 1.33 0.09 98 999.0
20260903104034 79 0 0.0 2.0 0.00 1.33 0.09 98 998.9
20260903103759 79 0 0.0 2.0 0.00 1.33 0.09 98 998.9
20260903103035 79 0 0.0 0.0 0.00 1.33 0.09 98 998.9
20260903102535 79 0 0.0 0.0 0.00 1.33 0.09 98 998.9
20260903102036 79 0 0.0 0.0 0.00 1.33 0.09 98 998.9
20260903101534 79 0 0.0 0.0 0.00 1.33 0.09 98 998.9
20260903101034 79 0 0.0 0.0 0.00 1.33 0.09 98 998.9
20260903100535 79 0 0.0 0.0 0.00 1.33 0.09 98 998.9
20260903100523 79 0 0.0 0.0 0.00 1.33 0.09 98 999.0
20260903095531 79 0 0.0 0.0 0.00 1.33 0.09 98 999.0
20260903095031 79 0 0.0 0.0 0.00 1.33 0.09 98 999.0
20260903094531 79 0 0.0 0.0 0.00 1.33 0.09 98 998.9
20260903094031 79 0 0.0 0.0 0.00 1.33 0.09 98 998.9
20260903093531 79 0 0.0 0.0 0.00 1.33 0.09 98 998.9
20260903093030 79 0 0.0 0.0 0.00 1.33 0.09 98 998.9
20260903092757 79 0 0.0 0.0 0.00 1.33 0.09 98 998.8
20260903092033 79 0 0.0 0.0 0.00 1.33 0.09 98 998.8
20260903091526 79 0 0.0 0.0 0.00 1.33 0.09 98 998.9
20260903091027 79 0 0.0 0.0 0.00 1.33 0.09 98 998.9
20260903090526 79 0 0.0 0.0 0.00 1.33 0.09 98 998.8
20260903090026 79 0 0.0 0.0 0.00 1.33 0.09 98 998.8
20260903085527 80 0 0.0 0.0 0.00 1.33 0.09 98 998.8
20260903085027 80 0 0.0 0.0 0.00 1.33 0.09 98 998.7
20260903084526 80 0 0.0 0.0 0.00 1.33 0.09 98 998.8
20260903084024 80 0 0.0 0.0 0.00 1.33 0.09 98 998.8
20260903083522 80 0 0.0 0.0 0.00 1.33 0.09 98 998.8
20260903083018 80 0 0.0 0.0 0.00 1.33 0.09 98 998.8
20260903082521 80 0 0.0 0.0 0.00 1.33 0.09 98 998.8
20260903082014 80 0 0.0 0.0 0.00 1.33 0.09 98 998.7
20260903081513 80 0 0.0 0.0 0.00 1.33 0.09 98 998.7
20260903081013 80 0 0.0 0.0 0.00 1.33 0.09 98 998.7
20260903080511 80 0 0.0 0.0 0.00 1.33 0.09 98 998.7
20260903080010 80 0 0.0 0.0 0.00 1.33 0.09 98 998.6
20260903075510 80 0 0.0 0.0 0.00 1.33 0.09 98 998.7
20260903075224 80 0 0.0 0.0 0.00 1.33 0.09 98 998.6
20260903074505 80 0 0.0 0.0 0.00 1.33 0.09 98 998.5
20260903074005 80 0 0.0 0.0 0.00 1.33 0.09 98 998.5
20260903073503 80 0 0.0 0.0 0.00 1.33 0.09 98 998.6
20260903073001 80 0 0.0 0.0 0.00 1.33 0.09 98 998.5
20260903072500 80 0 0.0 2.0 0.00 1.33 0.09 98 998.5
20260903072000 79 0 0.0 3.0 0.00 1.33 0.09 98 998.4
20260903071459 79 0 0.0 3.0 0.00 1.33 0.09 98 998.5
20260903070956 79 0 0.0 0.0 0.00 1.33 0.09 98 998.6
20260903070456 79 0 0.0 0.0 0.00 1.33 0.09 98 998.6
20260903065953 79 0 0.0 0.0 0.00 1.33 0.09 98 998.7
20260903065450 79 0 0.0 0.0 0.00 1.33 0.09 97 998.8
20260903064949 79 0 0.0 0.0 0.00 1.33 0.09 98 998.8
20260903064444 79 0 0.0 0.0 0.00 1.33 0.09 98 998.9
20260903063945 79 0 0.0 0.0 0.01 1.33 0.09 98 998.8
20260903063440 79 0 0.0 0.0 0.01 1.33 0.09 97 998.9
20260903062942 79 0 0.0 0.0 0.03 1.33 0.09 97 998.9
20260903062438 79 0 0.0 2.0 0.04 1.33 0.09 97 998.9
20260903061939 79 0 0.0 2.0 0.05 1.33 0.09 97 999.0
20260903061436 79 0 0.0 2.0 0.07 1.33 0.09 97 999.0
20260903060936 79 0 0.0 2.0 0.08 1.33 0.09 97 999.0
20260903060434 78 0 0.0 2.0 0.09 1.33 0.09 97 999.0
20260903060155 78 0 0.0 0.0 0.09 1.33 0.09 97 999.0
20260903055435 78 0 0.0 1.0 0.09 1.33 0.09 97 999.1
20260903054932 78 0 0.0 2.0 0.11 1.33 0.09 97 999.2
20260903054428 79 0 0.0 2.0 0.12 1.33 0.09 97 999.3
20260903054147 79 0 0.0 2.0 0.12 1.32 0.08 97 999.3
20260903053426 79 0 1.0 2.0 0.12 1.31 0.07 97 999.3
20260903052926 79 0 1.0 3.0 0.13 1.30 0.07 97 999.4
20260903052426 79 0 0.0 3.0 0.12 1.29 0.05 97 999.6
20260903052148 79 0 0.0 2.0 0.14 1.28 0.04 97 999.7
20260903051652 79 0 1.0 3.0 0.13 1.26 0.02 97 999.8
20260903050924 79 0 1.0 3.0 0.13 1.25 0.01 97 1000.0
20260903050425 79 0 0.0 2.0 0.12 1.24 0.00 97 1000.0
20260903045920 78 0 0.0 2.0 0.13 1.24 1.24 97 1000.0
20260903045419 78 0 1.0 4.0 0.12 1.23 1.24 97 1000.1
20260903044920 78 0 1.0 4.0 0.12 1.22 1.22 97 1000.0
20260903044419 78 0 0.0 3.0 0.11 1.21 1.21 97 1000.1
20260903043920 78 0 0.0 1.0 0.10 1.20 1.20 96 1000.1
20260903043421 78 0 0.0 1.0 0.09 1.19 1.19 96 1000.2
20260903043139 78 0 0.0 1.0 0.07 1.17 1.18 96 1000.4
20260903042420 78 0 0.0 1.0 0.07 1.17 1.17 96 1000.5
20260903041921 78 0 0.0 1.0 0.04 1.14 1.14 96 1000.7
20260903041417 78 0 0.0 1.0 0.03 1.13 1.13 96 1000.8
20260903040916 78 0 0.0 1.0 0.02 1.12 1.12 96 1000.8
20260903040416 78 0 0.0 1.0 0.02 1.12 1.12 96 1000.7
20260903035915 78 0 0.0 1.0 0.01 1.11 1.11 96 1000.8
20260903035416 78 0 0.0 1.0 0.00 1.10 1.10 96 1000.5
20260903034915 78 0 0.0 1.0 0.00 1.10 1.10 96 1000.5
20260903034414 78 0 0.0 1.0 0.00 1.10 1.10 96 1000.4
20260903033915 78 0 0.0 1.0 0.00 1.10 1.10 95 1000.1
20260903033416 78 0 0.0 0.0 0.00 1.10 1.10 95 999.9
20260903032911 78 0 0.0 1.0 0.00 1.10 1.10 95 999.8
20260903032411 78 0 0.0 1.0 0.00 1.10 1.10 95 999.9
20260903031912 78 0 0.0 1.0 0.00 1.10 1.10 95 999.7
20260903031410 78 0 0.0 0.0 0.00 1.10 1.10 95 999.5
20260903030911 78 0 0.0 0.0 0.00 1.10 1.10 95 999.7
20260903030411 78 0 0.0 0.0 0.00 1.10 1.10 95 999.6
20260903025911 78 0 0.0 0.0 0.00 1.10 1.10 95 999.6
20260903025411 78 0 0.0 0.0 0.00 1.10 1.10 95 999.5
20260903024912 78 0 0.0 0.0 0.00 1.10 1.10 95 999.5
20260903024630 78 0 0.0 0.0 0.00 1.10 1.10 95 999.5
20260903023911 78 0 0.0 0.0 0.00 1.10 1.10 95 999.4
20260903023411 78 0 0.0 0.0 0.00 1.10 1.10 95 999.1
20260903022911 78 0 0.0 0.0 0.00 1.10 1.10 95 999.1
20260903022410 78 0 0.0 0.0 0.00 1.10 1.10 95 999.1
20260903021910 78 0 0.0 0.0 0.00 1.10 1.10 95 999.0
20260903021411 78 0 0.0 0.0 0.01 1.10 1.10 95 998.9
20260903020910 78 0 0.0 2.0 0.01 1.10 1.10 95 998.8
20260903020411 78 0 0.0 4.0 0.02 1.10 1.10 94 998.5
20260903015910 78 0 0.0 4.0 0.02 1.10 1.10 94 998.5
20260903015411 78 0 0.0 0.0 0.06 1.10 1.10 94 998.4
20260903014912 78 0 0.0 0.0 0.13 1.10 1.10 94 998.5
20260903014411 78 0 0.0 0.0 0.30 1.10 1.10 94 998.7
20260903013910 78 0 0.0 2.0 0.59 1.10 1.10 94 998.5
20260903013408 78 0 0.0 3.0 0.86 1.10 1.10 94 998.4
20260903012909 78 0 1.0 8.0 0.88 1.10 1.10 94 998.3
20260903012406 78 0 2.0 8.0 0.88 1.10 1.10 94 998.0
20260903011906 78 0 1.0 4.0 0.88 1.10 1.10 93 998.0
20260903011359 78 0 2.0 5.0 0.87 1.09 1.09 93 998.1
20260903011119 78 0 3.0 12.0 0.87 1.09 1.09 93 998.4